FW5145 Weather Reports


Display with metric or nautical units.
time (UTC)temp
F
wind
direction
speed
MPH
gust
MPH
rain 1hr
in
rain 24hr
in
rain mn
in
humidity
%
barometer
mb
20260906205533 62 0 0.0 1.0 0.00 0.00 0.00 100 1018.5
20260906205034 62 0 0.0 1.0 0.00 0.00 0.00 100 1018.4
20260906204556 62 0 0.0 0.0 0.00 0.00 0.00 100 1018.3
20260906204033 62 0 0.0 0.0 0.00 0.00 0.00 100 1018.3
20260906203533 62 0 0.0 0.0 0.00 0.00 0.00 100 1018.2
20260906203043 62 0 0.0 0.0 0.00 0.00 0.00 100 1018.4
20260906202533 62 0 0.0 0.0 0.00 0.00 0.00 100 1018.6
20260906202036 62 0 0.0 0.0 0.00 0.00 0.00 100 1018.6
20260906201603 62 0 0.0 0.0 0.00 0.00 0.00 100 1018.6
20260906201033 62 0 0.0 0.0 0.00 0.00 0.00 100 1018.6
20260906200533 63 0 0.0 0.0 0.00 0.00 0.00 100 1018.9
20260906200049 63 0 0.0 0.0 0.00 0.00 0.00 100 1018.8
20260906195533 63 0 0.0 0.0 0.00 0.00 0.00 100 1018.8
20260906195033 63 0 0.0 0.0 0.00 0.00 0.00 100 1018.9
20260906194556 63 0 0.0 0.0 0.00 0.00 0.00 100 1018.9
20260906194033 64 0 0.0 0.0 0.00 0.00 0.00 100 1019.0
20260906193533 64 0 0.0 0.0 0.00 0.00 0.00 100 1018.8
20260906193052 64 0 0.0 0.0 0.00 0.00 0.00 100 1019.0
20260906192533 64 0 0.0 0.0 0.00 0.00 0.00 100 1018.8
20260906192033 65 0 0.0 0.0 0.00 0.00 0.00 100 1018.9
20260906191550 65 0 0.0 0.0 0.00 0.00 0.00 100 1018.9
20260906191032 65 0 0.0 0.0 0.00 0.00 0.00 100 1019.0
20260906190534 66 0 0.0 0.0 0.00 0.00 0.00 100 1019.1
20260906185532 66 0 0.0 0.0 0.00 0.00 0.00 100 1018.9
20260906185034 66 0 0.0 0.0 0.00 0.00 0.00 100 1019.1
20260906184546 66 0 0.0 0.0 0.00 0.00 0.00 100 1019.1
20260906184031 67 0 0.0 0.0 0.00 0.00 0.00 100 1018.9
20260906183531 67 0 0.0 0.0 0.00 0.00 0.00 100 1018.9
20260906183105 67 0 0.0 0.0 0.00 0.00 0.00 100 1019.1
20260906182532 67 0 0.0 0.0 0.00 0.00 0.00 100 1019.2
20260906182032 67 0 0.0 0.0 0.00 0.00 0.00 100 1019.1
20260906181555 67 0 0.0 0.0 0.00 0.00 0.00 100 1019.1
20260906181032 67 0 0.0 0.0 0.00 0.00 0.00 100 1019.1
20260906180532 67 0 0.0 0.0 0.00 0.00 0.00 100 1019.2
20260906180110 67 0 0.0 0.0 0.00 0.00 0.00 100 1019.1
20260906175533 67 0 0.0 0.0 0.00 0.00 0.00 100 1019.1
20260906175032 68 0 0.0 0.0 0.00 0.00 0.00 100 1019.2
20260906174559 68 0 0.0 0.0 0.00 0.00 0.00 100 1019.4
20260906174033 68 0 0.0 0.0 0.00 0.00 0.00 100 1019.4
20260906173533 68 0 0.0 0.0 0.00 0.00 0.00 100 1019.6
20260906173047 68 0 0.0 2.0 0.00 0.00 0.00 100 1019.5
20260906172533 68 0 0.0 4.0 0.00 0.00 0.00 100 1019.6
20260906172032 68 0 0.0 4.0 0.00 0.00 0.00 100 1019.7
20260906171554 68 0 0.0 4.0 0.00 0.00 0.00 100 1019.9
20260906171033 68 0 0.0 2.0 0.00 0.00 0.00 100 1020.0
20260906170532 68 0 0.0 3.0 0.00 0.00 0.00 100 1020.0
20260906170117 69 0 0.0 3.0 0.00 0.00 0.00 100 1020.0
20260906165532 69 0 0.0 2.0 0.00 0.00 0.00 100 1020.1
20260906165035 69 0 0.0 3.0 0.00 0.00 0.00 100 1020.0
20260906164552 69 0 0.0 3.0 0.00 0.00 0.00 100 1020.0
20260906164032 69 0 0.0 2.0 0.00 0.00 0.00 100 1020.2
20260906163533 69 0 0.0 3.0 0.00 0.00 0.00 100 1020.3
20260906163048 69 0 0.0 3.0 0.00 0.00 0.00 100 1020.2
20260906162534 69 0 0.0 3.0 0.00 0.00 0.00 100 1020.4
20260906162033 69 0 0.0 4.0 0.00 0.00 0.00 100 1020.3
20260906161553 69 241 0.0 4.0 0.00 0.00 0.00 100 1020.3
20260906161032 69 246 1.0 4.0 0.00 0.00 0.00 100 1020.6
20260906160532 69 264 0.0 8.0 0.00 0.00 0.00 100 1020.5
20260906160047 69 234 1.0 8.0 0.00 0.00 0.00 100 1020.5
20260906155533 70 0 0.0 5.0 0.00 0.00 0.00 100 1020.6
20260906155033 70 0 0.0 3.0 0.00 0.00 0.00 100 1020.5
20260906154545 70 0 0.0 3.0 0.00 0.00 0.00 100 1020.5
20260906154033 70 0 0.0 6.0 0.00 0.00 0.00 100 1020.6
20260906153533 70 223 1.0 6.0 0.00 0.00 0.00 100 1020.6
20260906153053 70 222 2.0 7.0 0.00 0.00 0.00 64 1020.7
20260906152532 71 180 2.0 7.0 0.00 0.00 0.00 21 1020.6
20260906152032 71 230 1.0 4.0 0.00 0.00 0.00 89 1020.6
20260906151607 72 0 0.0 3.0 0.00 0.00 0.00 100 1020.6
20260906151033 72 241 0.0 6.0 0.00 0.00 0.00 100 1020.7
20260906150533 72 246 1.0 6.0 0.00 0.00 0.00 78 1020.7
20260906150051 73 265 1.0 5.0 0.00 0.00 0.00 100 1020.8
20260906145532 73 244 0.0 5.0 0.00 0.00 0.00 100 1020.8
20260906145035 73 259 1.0 8.0 0.00 0.00 0.00 42 1020.8
20260906144545 74 0 0.0 8.0 0.00 0.00 0.00 100 1020.8
20260906144031 74 240 1.0 5.0 0.00 0.00 0.00 100 1020.8
20260906143533 75 0 1.0 3.0 0.00 0.00 0.00 100 1020.7
20260906143119 76 235 0.0 6.0 0.00 0.00 0.00 100 1020.8
20260906142531 76 233 1.0 6.0 0.00 0.00 0.00 100 1020.9
20260906142038 77 205 2.0 6.0 0.00 0.00 0.00 100 1020.7
20260906141552 77 254 1.0 7.0 0.00 0.00 0.00 100 1020.8
20260906141033 76 83 1.0 7.0 0.00 0.00 0.00 100 1020.9
20260906140536 76 269 0.0 7.0 0.00 0.00 0.00 100 1021.1
20260906140051 76 171 2.0 7.0 0.00 0.00 0.00 100 1021.1
20260906135532 76 241 1.0 7.0 0.00 0.00 0.00 100 1021.2
20260906135035 77 0 1.0 7.0 0.00 0.00 0.00 100 1021.4
20260906134552 77 273 2.0 7.0 0.00 0.00 0.00 100 1021.4
20260906134032 76 259 3.0 8.0 0.00 0.00 0.00 100 1021.3
20260906133531 76 269 1.0 8.0 0.00 0.00 0.00 100 1021.3
20260906133044 75 211 2.0 7.0 0.00 0.00 0.00 100 1021.4
20260906132533 75 182 2.0 7.0 0.00 0.00 0.00 100 1021.5
20260906132032 75 215 2.0 11.0 0.00 0.00 0.00 100 1021.5
20260906131546 75 225 2.0 12.0 0.00 0.00 0.00 100 1021.5
20260906131031 75 174 3.0 12.0 0.00 0.00 0.00 100 1021.5
20260906130532 75 196 0.0 8.0 0.00 0.00 0.00 100 1021.6
20260906130053 75 190 2.0 8.0 0.00 0.00 0.00 100 1021.5
20260906125538 75 189 2.0 7.0 0.00 0.00 0.00 100 1021.5
20260906125033 75 256 2.0 7.0 0.00 0.00 0.00 100 1021.5
20260906124548 75 201 1.0 7.0 0.00 0.00 0.00 100 1021.5
20260906124033 75 219 1.0 11.0 0.00 0.00 0.00 100 1021.6
20260906123531 75 240 2.0 11.0 0.00 0.00 0.00 100 1021.6
20260906123113 75 180 2.0 9.0 0.00 0.00 0.00 100 1021.7
20260906122532 75 215 2.0 9.0 0.00 0.00 0.00 100 1021.8
20260906122033 76 222 2.0 9.0 0.00 0.00 0.00 100 1022.0
20260906121553 76 238 2.0 9.0 0.00 0.00 0.00 100 1022.0
20260906121034 75 179 3.0 9.0 0.00 0.00 0.00 100 1022.1
20260906120533 75 180 3.0 9.0 0.00 0.00 0.00 100 1021.9
20260906120046 75 245 2.0 8.0 0.00 0.00 0.00 100 1022.1
20260906115533 75 193 2.0 9.0 0.00 0.00 0.00 100 1022.2
20260906115033 74 284 1.0 9.0 0.00 0.00 0.00 60 1022.3
20260906114601 74 192 2.0 8.0 0.00 0.00 0.00 94 1022.4
20260906114034 74 178 3.0 8.0 0.00 0.00 0.00 30 1022.4
20260906113532 73 0 2.0 9.0 0.00 0.00 0.00 100 1022.4
20260906113043 73 240 2.0 10.0 0.00 0.00 0.00 100 1022.4
20260906112533 73 211 4.0 10.0 0.00 0.00 0.00 100 1022.6
20260906112032 74 148 2.0 8.0 0.00 0.00 0.00 50 1022.6
20260906111542 73 236 2.0 7.0 0.00 0.00 0.00 100 1022.6
20260906111032 73 257 2.0 9.0 0.00 0.00 0.00 100 1022.5
20260906110533 72 287 2.0 9.0 0.00 0.00 0.00 100 1022.6
20260906110046 72 229 1.0 9.0 0.00 0.00 0.00 100 1022.6
20260906105533 72 251 1.0 9.0 0.00 0.00 0.00 100 1022.6
20260906105032 71 175 3.0 9.0 0.00 0.00 0.00 100 1022.6
20260906104545 71 235 2.0 7.0 0.00 0.00 0.00 100 1022.7
20260906104033 71 113 1.0 8.0 0.00 0.00 0.00 100 1022.7
20260906103531 70 240 1.0 8.0 0.00 0.00 0.00 100 1022.8
20260906103056 70 242 2.0 8.0 0.00 0.00 0.00 100 1022.8
20260906102533 70 242 2.0 8.0 0.00 0.00 0.00 100 1022.8
20260906102032 70 134 3.0 8.0 0.00 0.00 0.00 100 1022.7
20260906101553 70 188 2.0 9.0 0.00 0.00 0.00 100 1022.8
20260906101033 70 256 2.0 10.0 0.00 0.00 0.00 100 1022.8
20260906100534 69 252 2.0 10.0 0.00 0.00 0.00 100 1022.9
20260906100048 69 286 1.0 5.0 0.00 0.00 0.00 100 1022.9
20260906095533 69 248 0.0 4.0 0.00 0.00 0.00 100 1023.0
20260906095034 69 207 1.0 4.0 0.00 0.00 0.00 100 1023.1
20260906094547 68 59 0.0 6.0 0.00 0.00 0.00 100 1023.1
20260906094032 68 360 1.0 7.0 0.00 0.00 0.00 100 1023.0
20260906093532 68 0 0.0 7.0 0.00 0.00 0.00 100 1023.1
20260906093051 67 270 2.0 7.0 0.00 0.00 0.00 100 1023.1
20260906092533 67 241 2.0 7.0 0.00 0.00 0.00 100 1023.1
20260906092033 67 193 0.0 5.0 0.00 0.00 0.00 100 1023.0
20260906091605 66 313 1.0 8.0 0.00 0.00 0.00 100 1023.1
20260906091032 66 202 1.0 8.0 0.00 0.00 0.00 100 1023.2
20260906090532 66 236 1.0 6.0 0.00 0.00 0.00 100 1023.2
20260906090058 65 288 1.0 4.0 0.00 0.00 0.00 100 1023.2
20260906085533 65 0 0.0 5.0 0.00 0.00 0.00 100 1023.2
20260906085032 65 260 0.0 7.0 0.00 0.00 0.00 100 1023.2
20260906084552 64 298 1.0 7.0 0.00 0.00 0.00 100 1023.2
20260906084032 64 0 1.0 6.0 0.00 0.00 0.00 100 1023.2
20260906083532 64 0 0.0 8.0 0.00 0.00 0.00 100 1023.3
20260906083052 63 294 2.0 8.0 0.00 0.00 0.00 100 1023.4
20260906082536 63 264 1.0 7.0 0.00 0.00 0.00 100 1023.5
20260906082036 63 257 1.0 7.0 0.00 0.00 0.00 100 1023.5
20260906081546 62 241 0.0 7.0 0.00 0.00 0.00 100 1023.3
20260906081032 62 256 0.0 4.0 0.00 0.00 0.00 100 1023.3
20260906080532 61 0 1.0 4.0 0.00 0.00 0.00 100 1023.4
20260906080046 61 248 0.0 4.0 0.00 0.00 0.00 100 1023.4
20260906075532 61 292 0.0 3.0 0.00 0.00 0.00 100 1023.3
20260906075032 60 0 0.0 3.0 0.00 0.00 0.00 100 1023.4
20260906074555 60 0 0.0 3.0 0.00 0.00 0.00 100 1023.4
20260906074032 59 0 0.0 0.0 0.00 0.00 0.00 100 1023.5
20260906073532 58 0 0.0 0.0 0.00 0.00 0.00 100 1023.4
20260906073048 58 0 0.0 0.0 0.00 0.00 0.00 100 1023.5
20260906072532 57 0 0.0 0.0 0.00 0.00 0.00 100 1023.5
20260906072033 57 0 0.0 0.0 0.00 0.00 0.00 100 1023.4
20260906071544 57 0 0.0 0.0 0.00 0.00 0.00 100 1023.6
20260906071032 56 0 0.0 0.0 0.00 0.00 0.00 100 1023.6
20260906070532 56 0 0.0 0.0 0.00 0.00 0.00 100 1023.6
20260906070053 56 0 0.0 0.0 0.00 0.00 0.00 100 1023.9
20260906065532 55 0 0.0 0.0 0.00 0.00 0.00 100 1023.8
20260906065033 55 0 0.0 0.0 0.00 0.00 0.00 100 1023.9
20260906064546 55 0 0.0 0.0 0.00 0.00 0.00 100 1024.0
20260906064033 55 0 0.0 0.0 0.00 0.00 0.00 100 1024.1
20260906063532 54 0 0.0 0.0 0.00 0.00 0.00 100 1024.0
20260906063046 54 0 0.0 0.0 0.00 0.00 0.00 100 1024.1
20260906062532 54 0 0.0 0.0 0.00 0.00 0.00 100 1024.1
20260906062034 54 0 0.0 0.0 0.00 0.00 0.00 100 1024.1
20260906061554 54 0 0.0 0.0 0.00 0.00 0.00 100 1024.2
20260906061032 54 0 0.0 0.0 0.00 0.00 0.00 100 1024.1
20260906060533 54 0 0.0 0.0 0.00 0.00 0.00 100 1024.3
20260906060053 54 0 0.0 0.0 0.00 0.00 0.00 100 1024.2
20260906055533 54 0 0.0 0.0 0.00 0.00 0.00 100 1024.1
20260906055033 54 0 0.0 0.0 0.00 0.00 0.00 100 1024.0
20260906054546 54 0 0.0 0.0 0.00 0.00 0.00 100 1023.9
20260906054032 54 0 0.0 0.0 0.00 0.00 0.00 100 1024.0
20260906053532 54 0 0.0 0.0 0.00 0.00 0.00 100 1024.1
20260906053058 54 0 0.0 0.0 0.00 0.00 0.00 100 1024.3
20260906052533 54 0 0.0 0.0 0.00 0.00 0.00 100 1024.3
20260906052033 54 0 0.0 0.0 0.00 0.00 0.00 100 1024.3
20260906051542 54 0 0.0 0.0 0.00 0.00 0.00 100 1024.2
20260906051031 54 0 0.0 0.0 0.00 0.00 0.00 100 1024.3
20260906050531 54 0 0.0 0.0 0.00 0.00 0.00 100 1024.4
20260906050055 53 0 0.0 0.0 0.00 0.00 0.00 100 1024.3
20260906045535 53 0 0.0 0.0 0.00 0.00 0.00 100 1024.3
20260906045031 53 0 0.0 0.0 0.00 0.00 0.00 100 1024.4
20260906044557 53 0 0.0 0.0 0.00 0.00 0.00 100 1024.4
20260906044032 53 0 0.0 0.0 0.00 0.00 0.00 100 1024.2
20260906043530 53 0 0.0 0.0 0.00 0.00 0.00 100 1024.4
20260906043059 53 0 0.0 0.0 0.00 0.00 0.00 100 1024.4
20260906042531 53 0 0.0 0.0 0.00 0.00 0.00 100 1024.4
20260906042031 53 0 0.0 0.0 0.00 0.00 0.00 100 1024.5
20260906041556 53 0 0.0 0.0 0.00 0.00 0.00 100 1024.6
20260906041030 54 0 0.0 0.0 0.00 0.00 0.00 100 1024.5
20260906040531 54 0 0.0 0.0 0.00 0.00 0.00 100 1024.6
20260906040049 54 0 0.0 0.0 0.00 0.00 0.00 100 1024.5
20260906035530 54 0 0.0 0.0 0.00 0.00 0.00 100 1024.7
20260906035036 54 0 0.0 0.0 0.00 0.00 0.00 100 1024.8
20260906034553 54 0 0.0 0.0 0.00 0.00 0.00 100 1024.9
20260906034034 54 0 0.0 0.0 0.00 0.00 0.00 100 1024.7
20260906033531 54 0 0.0 0.0 0.00 0.00 0.00 100 1024.8
20260906033104 54 0 0.0 0.0 0.00 0.00 0.00 100 1024.7
20260906032531 54 0 0.0 0.0 0.00 0.00 0.00 100 1024.7
20260906032031 54 0 0.0 0.0 0.00 0.00 0.00 100 1024.7
20260906031550 54 0 0.0 0.0 0.00 0.00 0.00 100 1024.7
20260906031031 54 0 0.0 0.0 0.00 0.00 0.00 100 1024.7
20260906030531 54 0 0.0 0.0 0.00 0.00 0.00 100 1024.5
20260906030049 54 0 0.0 0.0 0.00 0.00 0.00 100 1024.6
20260906025531 54 0 0.0 0.0 0.00 0.00 0.00 100 1024.8
20260906025031 54 0 0.0 0.0 0.00 0.00 0.00 100 1024.9
20260906024546 54 0 0.0 0.0 0.00 0.00 0.00 100 1025.0
20260906024034 54 0 0.0 0.0 0.00 0.00 0.00 100 1025.1
20260906023537 54 0 0.0 0.0 0.00 0.00 0.00 100 1025.2
20260906023056 54 0 0.0 0.0 0.00 0.00 0.00 100 1025.4
20260906022531 54 0 0.0 0.0 0.00 0.00 0.00 100 1025.5
20260906022033 54 0 0.0 0.0 0.00 0.00 0.00 100 1025.5
20260906021557 54 0 0.0 0.0 0.00 0.00 0.00 100 1025.7
20260906021031 54 0 0.0 0.0 0.00 0.00 0.00 100 1025.7
20260906020535 54 0 0.0 0.0 0.00 0.00 0.00 100 1025.8
20260906020100 54 0 0.0 0.0 0.00 0.00 0.00 100 1025.7
20260906015534 54 0 0.0 0.0 0.00 0.00 0.00 100 1025.8
20260906015032 54 0 0.0 0.0 0.00 0.00 0.00 100 1025.7
20260906014554 54 0 0.0 0.0 0.00 0.00 0.00 100 1025.7
20260906014037 54 0 0.0 0.0 0.00 0.00 0.00 100 1025.7
20260906013531 54 0 0.0 0.0 0.00 0.00 0.00 100 1025.7
20260906013056 54 0 0.0 0.0 0.00 0.00 0.00 100 1026.0
20260906012538 54 0 0.0 0.0 0.00 0.00 0.00 100 1025.8
20260906012032 55 0 0.0 0.0 0.00 0.00 0.00 100 1025.8
20260906011559 55 0 0.0 0.0 0.00 0.00 0.00 100 1026.0
20260906011036 55 0 0.0 0.0 0.00 0.00 0.00 100 1025.9
20260906010534 55 0 0.0 0.0 0.00 0.00 0.00 100 1026.0
20260906010057 55 0 0.0 0.0 0.00 0.00 0.00 100 1025.9
20260906005536 55 0 0.0 0.0 0.00 0.00 0.00 100 1025.9
20260906005034 55 0 0.0 0.0 0.00 0.00 0.00 100 1026.0
20260906004558 55 0 0.0 0.0 0.00 0.00 0.00 100 1026.0
20260906004036 55 0 0.0 0.0 0.00 0.00 0.00 100 1026.1
20260906003535 55 0 0.0 0.0 0.00 0.00 0.00 100 1026.0
20260906003103 55 0 0.0 0.0 0.00 0.00 0.00 100 1026.0
20260906002534 55 0 0.0 0.0 0.00 0.00 0.00 100 1026.1
20260906002035 55 0 0.0 0.0 0.00 0.00 0.00 100 1026.2
20260906001554 55 0 0.0 0.0 0.00 0.00 0.00 100 1026.1
20260906001034 55 0 0.0 0.0 0.00 0.00 0.00 100 1026.2
20260906000535 55 0 0.0 0.0 0.00 0.00 0.00 100 1026.3
20260906000057 55 0 0.0 0.0 0.00 0.00 0.00 100 1026.2
20260905235534 55 0 0.0 0.0 0.00 0.00 0.00 100 1026.3
20260905235031 55 0 0.0 0.0 0.00 0.00 0.00 100 1026.3
20260905234549 56 0 0.0 0.0 0.00 0.00 0.00 100 1026.3
20260905234031 56 0 0.0 0.0 0.00 0.00 0.00 100 1026.3
20260905233532 56 0 0.0 0.0 0.00 0.00 0.00 100 1026.3
20260905233043 56 0 0.0 0.0 0.00 0.00 0.00 100 1026.0
20260905232532 56 0 0.0 0.0 0.00 0.00 0.00 100 1026.0
20260905232036 56 0 0.0 0.0 0.00 0.00 0.00 100 1026.0
20260905231554 56 0 0.0 0.0 0.00 0.00 0.00 100 1025.9
20260905231034 56 0 0.0 0.0 0.00 0.00 0.00 100 1025.9
20260905230531 56 0 0.0 0.0 0.00 0.00 0.00 100 1026.1
20260905230051 56 0 0.0 0.0 0.00 0.00 0.00 100 1026.1
20260905225534 56 0 0.0 0.0 0.00 0.00 0.00 100 1026.0
20260905225032 56 0 0.0 0.0 0.00 0.00 0.00 100 1026.0
20260905224555 56 0 0.0 0.0 0.00 0.00 0.00 100 1025.9
20260905224032 56 0 0.0 0.0 0.00 0.00 0.00 100 1026.0
20260905223532 56 0 0.0 0.0 0.00 0.00 0.00 100 1026.0
20260905223050 56 0 0.0 0.0 0.00 0.00 0.00 100 1026.0
20260905222532 57 0 0.0 0.0 0.00 0.00 0.00 100 1026.1
20260905222031 57 0 0.0 0.0 0.00 0.00 0.00 100 1026.1
20260905221543 57 0 0.0 0.0 0.00 0.00 0.00 100 1026.2
20260905221033 57 0 0.0 0.0 0.00 0.00 0.00 100 1026.2
20260905220531 57 0 0.0 0.0 0.00 0.00 0.00 100 1026.1
20260905220052 57 0 0.0 0.0 0.00 0.00 0.00 100 1026.1
20260905215532 57 0 0.0 0.0 0.00 0.00 0.00 100 1026.1
20260905215033 57 0 0.0 0.0 0.00 0.00 0.00 100 1026.1
20260905214601 57 0 0.0 0.0 0.00 0.00 0.00 100 1026.0
20260905214032 57 0 0.0 0.0 0.00 0.00 0.00 100 1025.8
20260905213532 57 0 0.0 0.0 0.00 0.00 0.00 100 1025.9
20260905213053 57 0 0.0 0.0 0.00 0.00 0.00 100 1026.1
20260905212534 57 0 0.0 0.0 0.00 0.00 0.00 100 1025.9
20260905212032 57 0 0.0 0.0 0.00 0.00 0.00 100 1026.0
20260905211556 57 0 0.0 0.0 0.00 0.00 0.00 100 1025.9
20260905211031 57 0 0.0 0.0 0.00 0.00 0.00 100 1025.9
20260905210531 58 0 0.0 0.0 0.00 0.00 0.00 100 1025.8
20260905210058 58 0 0.0 0.0 0.00 0.00 0.00 100 1025.9